カタログに戻る

KUIPER-00097

運用中通信LEO
NORAD 65136·PAYLOAD·🇺🇸 United States

打ち上げ Aug 11, 2025 から Cape Canaveral Space Force Station

Loading…

次のパス (今後24時間)

TLE

最新Source: CelesTrak SupGP

元期: Sep 14, 2026, 16:18 UTC

1 65136C 25171E   26257.67958333 -.00010648  00000+0 -13945-2 0  2574
2 65136  51.9018  45.0218 0000643 102.8168 197.7752 14.79922151    16

AllMySatでKUIPER-00097をリアルタイム追跡

Download on the App Store